JE4YKI-13 Weather Reports


time (UTC)temp
F
wind
direction
speed
knots
gust
knots
rain 1hr
in
rain 24hr
in
rain mn
in
humidity
%
barometer
mb
20260504081852 61 320 1.7 0.0 0.00 0.00 0.00 53 1012.9
20260504080851 62 25 2.6 0.0 0.00 0.00 0.00 50 1012.8
20260504045843 65 238 2.6 0.0 0.00 0.00 0.00 45 1010.3
20260504044845 64 327 2.6 0.0 0.00 0.00 0.00 47 1010.4
20260504043842 64 308 3.5 0.0 0.00 0.00 0.00 46 1010.3
20260504042843 63 266 6.1 0.0 0.00 0.00 0.00 47 1010.3
20260504041841 64 284 3.5 0.0 0.00 0.00 0.00 47 1010.1
20260504040841 64 259 7.0 0.0 0.00 0.00 0.00 45 1010.0
20260504035841 64 17 1.7 0.0 0.00 0.00 0.00 44 1010.0
20260504034839 65 313 2.6 0.0 0.00 0.00 0.00 43 1009.7
20260504033952 65 199 5.2 0.0 0.00 0.00 0.00 43 1009.5
20260504032838 64 284 6.1 0.0 0.00 0.00 0.00 44 1009.6
20260504030838 65 286 7.0 0.0 0.00 0.00 0.00 44 1009.4
20260504025837 65 294 3.5 0.0 0.00 0.00 0.00 43 1009.1
20260504024837 65 358 9.6 0.0 0.00 0.00 0.00 43 1009.0
20260504023837 65 323 0.0 0.0 0.00 0.00 0.00 43 1009.1
20260504022836 65 309 4.3 0.0 0.00 0.00 0.00 43 1008.9
20260504021836 65 319 5.2 0.0 0.00 0.00 0.00 45 1008.9
20260504020836 65 290 3.5 0.0 0.00 0.00 0.00 47 1008.7
20260504015835 64 250 2.6 0.0 0.00 0.00 0.00 49 1008.7
20260504014835 64 262 6.1 0.0 0.00 0.00 0.00 48 1008.6
20260504013835 64 309 2.6 0.0 0.00 0.00 0.00 48 1008.4
20260504012834 64 263 0.9 0.0 0.00 0.00 0.00 50 1008.4
20260504011834 64 249 0.0 0.0 0.00 0.00 0.00 50 1008.2
20260504010833 65 245 1.7 0.0 0.00 0.00 0.00 51 1008.2
20260504005833 65 263 2.6 0.0 0.00 0.00 0.00 52 1008.0
20260504004833 65 285 4.3 0.0 0.00 0.00 0.00 52 1007.9
20260504003832 65 253 2.6 0.0 0.00 0.00 0.00 51 1007.7
20260504002832 65 295 1.7 0.0 0.00 0.00 0.00 54 1007.7
20260504000831 64 296 2.6 0.0 0.00 0.00 0.00 57 1007.5
20260503235831 64 298 0.9 0.0 0.00 0.00 0.00 58 1007.6
20260503234831 63 272 0.9 0.0 0.00 0.00 0.00 60 1007.1
20260503233829 63 272 3.5 0.0 0.00 0.00 0.00 61 1007.2
20260503232829 63 283 2.6 0.0 0.00 0.00 0.00 65 1007.0
20260503231829 64 281 7.0 0.0 0.00 0.00 0.00 60 1007.0
20260503230829 63 214 1.7 0.0 0.00 0.00 0.00 60 1006.9
20260503225828 63 288 1.7 0.0 0.00 0.00 0.00 61 1006.7
20260503224827 63 267 0.9 0.0 0.00 0.00 0.00 66 1006.6
20260503223827 62 247 2.6 0.0 0.00 0.00 0.00 67 1006.4
20260503222827 62 296 4.3 0.0 0.00 0.00 0.00 66 1006.1
20260503221826 62 266 0.9 0.0 0.00 0.00 0.00 65 1006.2
20260503220826 62 281 0.0 0.0 0.00 0.00 0.00 69 1005.9
20260503215825 62 267 1.7 0.0 0.00 0.00 0.00 70 1005.8
20260503214825 61 275 1.7 0.0 0.00 0.00 0.00 72 1005.6
20260503213825 61 250 0.0 0.0 0.00 0.00 0.00 73 1005.3
20260503212824 60 225 0.0 0.0 0.00 0.00 0.00 74 1005.2
20260503211824 60 222 0.0 0.0 0.00 0.00 0.00 73 1005.0
20260503210824 60 236 0.9 0.0 0.00 0.00 0.00 73 1004.9
20260503205823 60 280 0.0 0.0 0.00 0.00 0.00 72 1004.5
20260503204823 59 267 0.0 0.0 0.00 0.00 0.00 75 1004.3
20260503203823 59 277 0.9 0.0 0.00 0.00 0.00 77 1003.8
20260503202822 59 264 0.0 0.0 0.00 0.00 0.00 79 1004.0
20260503201822 59 274 0.0 0.0 0.00 0.00 0.00 79 1004.0
20260503200822 59 276 0.0 0.0 0.00 0.00 0.00 81 1003.8
20260503195821 58 297 1.7 0.0 0.00 0.00 0.00 83 1003.5
20260503194821 58 279 0.9 0.0 0.00 0.00 0.00 83 1003.4
20260503193821 58 143 0.9 0.0 0.00 0.00 0.00 83 1003.5
20260503192820 59 139 0.0 0.0 0.00 0.00 0.00 82 1003.6
20260503191820 59 268 0.9 0.0 0.00 0.00 0.00 82 1003.3
20260503190819 60 245 0.0 0.0 0.00 0.00 0.00 80 1003.1
20260503185819 60 269 0.0 0.0 0.00 0.00 0.00 78 1002.8
20260503184818 61 240 2.6 0.0 0.00 0.00 0.00 77 1002.8
20260503183818 61 193 1.7 0.0 0.00 0.00 0.00 78 1002.8
20260503182818 60 210 3.5 0.0 0.00 0.00 0.00 79 1003.0
20260503180817 60 260 0.0 0.0 0.00 0.00 0.00 80 1002.7
20260503175817 61 286 2.6 0.0 0.00 0.00 0.00 78 1002.7
20260503174817 61 238 1.7 0.0 0.00 0.00 0.00 78 1002.8
20260503173816 61 255 5.2 0.0 0.00 0.00 0.00 77 1002.6
20260503172816 61 269 2.6 0.0 0.00 0.00 0.00 79 1002.3
20260503171815 61 290 5.2 0.0 0.00 0.00 0.00 79 1002.5
20260503170815 61 255 1.7 0.0 0.00 0.00 0.00 80 1002.5
20260503150810 61 271 1.7 0.0 0.00 0.00 0.00 86 1001.9